Weather in Bagaevskaya

Russia / Rostov Oblast     47°18′43″N   40°23′00″E
temp.,
°C
wind,
m/s
gust,
m/s
humid.,
%
clouds,
%
prec.,
mm/h
press.,
hPa
HPBL,
m
18 october, mon
mon1800:00+12nnw33575 0.0 101434
03:00+11nnw236565 0.0 101428
06:00+10nw336662 0.0 101443
09:00+14nnw355342 0.0 1016319
12:00+18nnw443918 0.0 10151003
15:00+19nw454191 0.0 10151611
18:00+14wnw345428 0.0 101667
21:00+11nw33625 0.0 101746
19 october, tue
tue1900:00+10nw2258100 0.0 101712
03:00+8wnw226315 0.0 101722
06:00+7w3566100 0.0 101791
09:00+10wnw585099 0.0 1017700
12:00+8w6881100 0.4 10181219
15:00+8wnw6882100 1.1 10171108
18:00+7wnw6984100 0.8 10191017
21:00+6wnw48835 0.9 1021332
20 october, wed
wed2000:00+4w410795 0.0 1022244
03:00+3w410715 0.0 1023223
06:00+3w411775 0.0 1025257
09:00+6nw610654 0.0 1026764
12:00+9nw68437 0.0 10261625
15:00+10nw573331 0.0 10271784
18:00+6nw22436 0.0 102814
21:00+5ene00490 0.0 102910
21 october, thu
thu2100:00+4s22525 0.0 102816
03:00+4sw2252100 0.0 102823
06:00+3sw3575100 0.0 102880
09:00+8sw5856100 0.0 1027315
12:00+13sw573410 0.0 1026945
15:00+15wsw67265 0.0 10241212
18:00+11sw35355 0.0 102365
21:00+9sw35445 0.0 102380
22 october, fri
fri2200:00+8sw47415 0.0 1021109
03:00+7sw37465 0.0 1021101
06:00+6ssw496567 0.0 1020140
09:00+11sw5105536 0.0 1020360
12:00+17wsw68495 0.0 1019978
15:00+19wsw684214 0.0 10181195
18:00+14wsw336231 0.0 101941
21:00+12sw33745 0.0 101934